Location: Kaukola
(61.3333°N, 22.8500°E)
Time: 19:02:42
(UTC+00:00)

Daily predictions for brighter satellites

Satellite Brightness Start Highest point End
(mag) Time Altitude Azimuth Time Altitude Azimuth Time Altitude Azimuth
UNK 4.2 14:04:23 10° NNE 14:09:03 65° WNW 14:13:41 10° SSW
Cosmos 304 Rocket 3.8 14:06:13 10° NW 14:11:05 87° NE 14:15:55 10° SE
Cosmos 1782 4.0 14:07:54 10° SE 14:11:10 24° E 14:14:24 10° NNE
SAR-Lupe-4 3.7 14:09:15 10° NNE 14:12:49 58° ESE 14:16:23 10° S
Radarsat Rocket 3.9 14:07:49 10° SE 14:13:41 66° ENE 14:19:29 10° NNW
Cosmos 2333 Rocket 3.7 14:10:32 10° SE 14:14:30 19° ESE 14:18:30 10° ENE
NOSS 3-1 (C) 3.8 14:08:52 10° W 14:15:14 76° N 14:22:50 10° E
ALOS 2.3 14:11:44 10° SSE 14:16:23 70° ENE 14:21:05 10° NNW
NOSS 2-3 (E) 4.3 14:11:44 10° WSW 14:16:48 80° NNW 14:23:19 10° ENE
ISS -0.6 14:15:26 10° SW 14:17:08 13° SSW 14:18:50 10° SSE
MOZ.5/SAFIR/RUBIN 5/SL-8 4.5 14:12:39 10° NNE 14:17:17 53° WNW 14:21:53 10° SW
ATLAS 3B R/B 4.1 14:12:05 10° WNW 14:18:21 44° SW 14:24:44 10° SSE
Cosmos 2322 Rocket 2.4 14:13:47 10° SSW 14:19:19 62° ESE 14:24:56 10° NE
Cosmos 1315 Rocket 4.1 14:16:51 10° SE 14:20:03 23° E 14:23:18 10° NE
Cosmos 292 Rocket 4.2 14:16:35 10° NNW 14:21:15 42° NE 14:25:54 10° ESE
Landsat 5 3.6 14:17:44 10° NNE 14:21:35 51° ESE 14:25:31 10° S
H-2A R/B 1.9 14:17:45 10° NNE 14:21:55 84° ESE 14:26:01 10° SSW
OPS 8737 4.2 14:19:41 10° WSW 14:22:51 70° SSE 14:25:47 10° ENE
Cosmos 158 Rocket 4.2 14:17:53 10° SW 14:22:54 65° NW 14:27:49 10° NNE
USA 229 DEB 3.8 14:17:03 10° W 14:23:57 75° N 14:31:15 10° E
USA 229 3.8 14:17:10 10° W 14:24:03 75° N 14:31:21 10° E
COSMOS 2455 3.1 14:18:22 10° SSW 14:24:16 60° SE 14:30:13 10° NE
Cosmos 1844 Rocket 4.1 14:19:32 10° NW 14:24:48 44° WSW 14:30:04 10° S
Cosmos 1484 Rocket 3.1 14:21:21 10° SSE 14:25:23 78° WSW 14:29:27 10° NNW
Cosmos 1400 Rocket 3.2 14:22:52 10° S 14:26:49 49° E 14:30:43 10° NNE
Cosmos 1697 Rocket 3.3 14:21:44 10° WSW 14:27:12 48° NNW 14:32:41 10° NE
SL-16 R/B 2.3 14:21:46 10° SSW 14:27:26 74° SE 14:33:07 10° NE
NOSS 2-3 (D) 4.3 14:22:35 10° W 14:27:39 78° NNW 14:34:11 10° ENE
Meteor 1-31 Rocket 4.1 14:24:10 10° S 14:27:53 44° W 14:31:39 10° NNW
Meteor 1-11 Rocket 4.1 14:22:39 10° NNW 14:28:29 49° ENE 14:34:16 10° SE
Envisat 3.8 14:24:09 10° ESE 14:28:31 30° NE 14:32:53 10° N
NOSS 3-1 (A) 3.8 14:22:52 10° W 14:29:12 77° N 14:36:46 10° E
Cosmos 2219 Rocket 3.5 14:25:00 10° SSE 14:29:16 23° ESE 14:33:33 10° NE
Cosmos 1992 Rocket 4.0 14:25:06 10° NNW 14:30:20 64° NE 14:35:32 10° SE
USA 267 4.4 14:24:37 10° SE 14:30:53 47° SSW 14:37:10 10° W
YAOGAN 1 4.0 14:28:16 10° E 14:31:02 17° NE 14:33:49 10° N
Cosmos 1733 Rocket 3.4 14:28:16 10° N 14:32:26 42° ENE 14:36:37 10° SE
NOSS 3-4 (A) 4.5 14:27:32 10° S 14:32:49 31° SE 14:38:25 10° ENE
NOSS 3-4 (C) 4.5 14:27:40 10° S 14:32:56 31° ESE 14:38:31 10° ENE
Helios 1A Rocket 2.9 14:29:02 10° SSE 14:33:07 74° ENE 14:37:13 10° NNW
Cosmos 1943 Rocket 2.8 14:28:01 10° NW 14:33:18 37° NNE 14:38:33 10° E
H-2A R/B 3.8 14:32:54 10° NE 14:34:18 11° NNE 14:35:40 10° N
Cosmos 1340 2.7 14:30:55 10° NNW 14:34:44 87° WSW 14:38:32 10° SSE
IRS-1C Rocket 4.3 14:30:03 10° SE 14:35:09 51° ENE 14:40:16 10° NNW
PSLV R/B 4.4 14:31:54 10° S 14:35:45 61° WSW 14:39:44 10° NNW
Cosmos 1500 3.6 14:35:06 10° N 14:38:41 38° ENE 14:42:13 10° SE
CZ-4B R/B 2.0 14:36:35 10° NNE 14:39:58 42° E 14:43:19 10° S
YAOGAN 6 4.1 14:38:02 10° E 14:40:29 17° NE 14:42:56 10° N
APEX 4.0 14:38:55 10° W 14:41:23 27° NNW 14:43:51 11° NE
Cosmos 1867 3.6 14:35:54 10° WNW 14:41:24 71° NNE 14:46:53 10° ESE
Cosmos 1869 Rocket 3.8 14:38:02 10° NNW 14:42:28 78° WSW 14:46:54 10° S
NOSS 2-2 (C) 4.0 14:39:11 10° SSW 14:42:53 47° SE 14:47:00 12° ENE
NOAA 6 4.1 14:39:48 10° SSE 14:44:57 87° WSW 14:50:07 10° NNW
Cosmos 2297 3.8 14:40:09 10° NW 14:45:51 57° NE 14:51:28 10° ESE
Meteor 1-26 Rocket 4.3 14:44:16 10° S 14:49:58 67° E 14:55:32 10° NNE
Cosmos 1602 4.0 14:46:31 10° NNW 14:50:24 73° WSW 14:54:17 10° S
Cosmos 1933 3.5 14:49:28 10° SSW 14:53:29 75° WNW 14:57:32 10° NNE
CZ-4C R/B 3.1 14:50:38 10° NNE 14:53:48 63° WNW 14:56:57 10° SSW
CSL-04 Rocket 4.4 14:49:35 10° ESE 14:54:04 29° NE 14:58:36 10° N
Cosmos 921 Rocket 3.5 14:50:47 10° NNW 14:54:44 36° NE 14:58:43 10° ESE
Cosmos 2237 4.4 14:49:55 10° SSW 14:55:32 59° ESE 15:00:35 13° NE
Cosmos 1441 Rocket 4.1 14:53:55 10° N 14:57:15 26° NE 15:00:32 10° ESE
RESURS DK-1 3.9 14:56:21 10° SSE 14:59:23 20° ESE 15:01:18 15° ENE
Tsikada Rocket 4.1 14:53:39 10° SSW 15:00:05 88° WNW 15:06:30 10° NNE
Cosmos 2180 Rocket 4.5 14:54:20 10° NNW 15:00:38 78° ENE 15:06:59 10° SSE
Cosmos 1689 Rocket 2.6 14:59:47 14° NNE 15:02:06 40° E 15:05:00 10° S
Cosmos 1939 Rocket 4.3 15:02:21 16° ENE 15:02:49 17° NE 15:05:20 10° N
Cosmos 1782 Rocket 4.4 14:59:15 10° N 15:03:01 27° ENE 15:06:45 10° ESE
Meteor 1-5 Rocket 4.1 14:58:29 10° NNW 15:04:10 81° ENE 15:09:38 10° SSE
NOSS 2-2 (E) 3.7 15:00:27 10° SW 15:04:21 65° SSE 15:08:11 16° ENE
H-2A R/B 2.7 15:01:01 10° SE 15:04:36 51° ENE 15:08:13 10° N
NOSS 2-3 (C) 4.4 14:59:42 10° W 15:04:56 73° N 15:10:54 14° E
Cosmos 494 Rocket 4.2 14:59:53 10° SSW 15:05:03 59° ESE 15:09:35 14° NE
Okean 2 Rocket 4.4 15:01:58 10° N 15:05:12 19° NE 15:07:04 15° E
COSMOS 2428 3.4 15:01:32 10° S 15:06:38 35° ESE 15:10:34 16° NE
Feng Yun 1-1 Rocket 4.1 15:01:23 10° SSE 15:06:45 74° ENE 15:12:13 10° NNW
Meteor 1-28 Rocket 3.1 15:04:06 10° NNE 15:07:53 88° ESE 15:11:40 10° SSW
Cosmos 2344 4.0 15:01:20 10° W 15:09:27 80° N 15:20:13 10° E
ATLAS 2AS CENTAUR R/B 3.3 15:02:19 10° SSW 15:10:09 60° SE 15:16:33 16° ENE
Cosmos 1536 2.9 15:07:51 10° N 15:11:50 51° ENE 15:15:45 10° SSE
Ariane Rocket 4.1 15:08:58 14° E 15:11:55 23° NE 15:15:48 10° N
Genesis I 3.7 15:13:02 10° WNW 15:16:57 63° SW 15:20:48 10° SE
Cosmos 1862 Rocket 4.3 15:16:05 10° SSE 15:20:00 33° E 15:22:51 16° NE
SL-08 R/B 4.2 15:15:35 10° NNE 15:20:23 50° WNW 15:25:05 10° SW
SL-16 R/B 3.6 15:15:26 10° NNE 15:21:07 40° NW 15:26:46 10° WSW
Cosmos 1763 Rocket 4.5 15:16:53 10° NNW 15:21:12 27° NNE 15:23:27 20° ENE
Cosmos 2333 4.5 15:17:03 10° SSW 15:22:38 55° ESE 15:26:52 18° NE
Cosmos 1666 2.9 15:19:30 10° N 15:23:08 45° ENE 15:26:45 10° SE
CZ-4B R/B 4.1 15:18:08 10° S 15:23:23 52° W 15:28:45 10° NNW
Okean O Rocket 2.8 15:20:55 10° S 15:25:06 46° W 15:29:20 10° NNW
SeaSat 1 3.1 15:22:29 18° E 15:25:38 37° NNE 15:30:11 10° NW
Cosmos 2278 Rocket 3.1 15:20:41 10° NW 15:26:12 53° WSW 15:31:41 10° SSE
Cosmos 1269 Rocket 4.0 15:22:33 10° SSW 15:27:50 69° ESE 15:31:58 17° NE
Cosmos 2322 3.8 15:22:15 10° SSW 15:27:53 64° ESE 15:32:02 19° NE
Lacrosse 5 rocket 3.3 15:26:29 10° S 15:29:01 16° SE 15:30:31 13° ESE
Cosmos 1606 3.9 15:26:09 10° SW 15:29:46 42° WNW 15:33:27 10° N
Cosmos 2279 Rocket 4.5 15:23:58 10° NNW 15:30:10 66° W 15:36:21 10° S
Cosmos 2242 Rocket 4.4 15:27:41 10° SSE 15:31:41 30° E 15:33:44 21° NE
Elektron 3 4.2 15:29:42 10° W 15:32:39 76° S 15:35:58 16° ESE
NOSS 8 (E) 4.2 15:29:40 10° WSW 15:32:47 88° SSE 15:34:23 30° ENE
Cosmos 1048 Rocket 4.3 15:28:15 10° SW 15:33:40 72° NW 15:38:06 16° NNE
Lacrosse 4 Rocket 2.3 15:30:19 10° WNW 15:34:05 33° N 15:35:42 25° NE
Cosmos 2228 Rocket 3.9 15:30:21 10° SW 15:34:51 52° WNW 15:39:22 10° N
USA 215 4.1 15:30:37 17° E 15:35:04 36° SE 15:41:02 10° SSW
SL-4 R/B 4.1 15:33:04 10° SSW 15:35:26 16° SSE 15:37:35 11° SE
Cosmos 1707 Rocket 3.5 15:30:57 10° S 15:35:26 75° E 15:39:47 11° NNE
FengYun 1-2 T 4.2 15:31:08 10° SE 15:36:31 59° ENE 15:41:58 10° NNW
Cosmos 2360 Rocket 2.2 15:31:10 10° SW 15:36:52 87° NW 15:41:05 19° NE
Cosmos 2369 Rocket 2.4 15:33:58 10° NW 15:39:28 52° NE 15:43:38 17° ESE
CZ-4 R/B 1.6 15:35:53 10° SE 15:39:32 41° ENE 15:43:11 10° N
Uosat 12 SS-18 rocket 4.3 15:34:50 10° WNW 15:40:27 85° NNE 15:44:07 17° ESE
CZ-2D R/B 4.3 15:42:01 26° NE 15:42:01 26° NE 15:44:42 10° N
Meteor 2-6 Rocket 4.1 15:37:14 10° S 15:42:37 73° ESE 15:48:06 10° NNE
Okean-O 2.5 15:38:31 10° SSE 15:42:58 79° ENE 15:47:26 10° NNW
Cosmos 1980 Rocket 3.1 15:38:21 10° W 15:43:41 38° NNW 15:47:18 19° NE
PSLV R/B 4.0 15:41:00 19° NNE 15:43:52 56° ESE 15:47:57 10° S
NOAA 12 4.0 15:38:49 10° SSE 15:44:08 85° ENE 15:49:28 10° NNW
SMAP 3.3 15:39:37 10° S 15:44:17 71° WSW 15:48:59 10° NNW
S3M 4.4 15:38:34 10° N 15:44:23 38° ENE 15:50:07 10° SE
Cosmos 1908 Rocket 3.4 15:42:12 10° NNW 15:46:39 75° ENE 15:51:03 10° SSE
Cosmos 1782 3.3 15:43:16 10° SSW 15:47:12 59° WNW 15:51:02 11° N
Cosmos 841 Rocket 4.5 15:43:34 10° NNW 15:48:01 27° NNE 15:49:17 25° NE
Cosmos 1743 3.1 15:44:52 10° N 15:48:33 41° ENE 15:52:14 10° SE
SL-16 R/B 3.8 15:46:33 10° SE 15:49:01 16° ESE 15:49:01 16° ESE
COSMO-SKYMED 1 3.9 15:52:26 22° ESE 15:52:26 22° ESE 15:54:50 10° SE
Cosmos 2251 Rocket 3.9 15:50:04 10° S 15:55:04 44° ESE 15:57:17 29° ENE
NOSS 2-2 (D) 3.5 15:51:32 10° WSW 15:55:33 89° SSE 15:57:47 32° ENE
Cosmos 1315 Rocket 3.2 15:52:16 10° SSW 15:56:17 65° WNW 15:59:37 15° NNE
H-2A R/B 4.0 15:54:16 10° N 15:57:30 23° NW 16:00:44 10° WSW
Cosmos 1553 Rocket 4.1 15:51:33 10° N 15:57:44 51° ENE 16:03:57 10° SE
Cosmos 2333 Rocket 2.3 15:52:09 10° SSW 15:57:51 65° SE 16:01:06 26° NE
Resurs 01 Rocket 3.9 16:00:04 10° NNE 16:00:04 10° NNE 16:00:12 10° N
Nadezhda 4 Rocket 4.0 15:53:03 10° S 15:59:17 64° E 16:05:32 10° NNE
Cosmos 2237 Rocket 2.8 15:54:49 10° S 15:59:59 37° ESE 16:01:42 30° ENE
Cosmos 292 Rocket 4.4 15:56:56 10° NW 16:01:45 58° WSW 16:06:31 10° SSE
Cosmos 1656 Rocket 4.0 15:57:31 10° NW 16:02:43 44° NNE 16:04:38 32° ENE
Cosmos 1975 3.2 15:59:01 10° N 16:02:33 39° NE 16:02:33 39° NE
Cosmos 1400 Rocket 4.5 15:59:48 10° WSW 16:03:29 32° WNW 16:07:06 10° N
Cosmos 2322 Rocket 2.8 15:58:06 10° WSW 16:03:37 51° NNW 16:07:06 22° NE
COBE Rocket 3.7 16:00:41 19° NNE 16:03:59 62° E 16:08:37 10° S
Meteor 1-10 Rocket 4.2 15:59:52 10° SSW 16:05:27 88° ESE 16:11:05 10° NNE
YAOGAN 1 2.5 16:02:10 10° SE 16:06:25 59° ENE 16:10:43 10° NNW
NOSS 3-1 (C) 3.8 15:59:48 10° WNW 16:06:33 89° NNE 16:12:22 20° ESE
Envisat 3.1 16:02:04 10° SSE 16:07:11 81° WSW 16:12:19 10° NNW
NOSS 2-3 (E) 4.4 16:02:27 10° WNW 16:07:59 78° NNE 16:11:48 28° E
Cosmos 1812 2.6 16:04:19 10° S 16:08:11 76° ESE 16:09:51 33° NNE
Cosmos 468 Rocket 4.4 16:04:23 10° NNW 16:09:20 42° NE 16:10:35 36° ENE
Cosmos 1733 Rocket 4.5 16:06:12 10° NNW 16:10:17 39° W 16:14:22 10° SSW
COSMOS 2455 3.1 16:04:18 10° WSW 16:10:19 65° NNW 16:13:29 29° NE
Okean 1-7 4.1 16:07:07 10° SSE 16:09:47 28° SE 16:09:47 28° SE
SL-16 R/B 2.9 16:06:28 10° WSW 16:11:57 46° NNW 16:15:10 23° NNE
CZ-4B R/B 3.2 16:09:26 12° N 16:12:15 31° WNW 16:15:23 10° WSW
OPS 8737 4.3 16:09:18 10° W 16:12:11 58° N 16:12:11 58° N
NOSS 8 (H) 4.3 16:09:06 10° WSW 16:12:15 80° NNW 16:12:46 62° NE
H-2A R/B 3.1 16:13:14 25° NNE 16:13:14 25° NNE 16:16:28 10° N
Cosmos 1697 Rocket 3.8 16:07:20 10° WNW 16:12:22 32° N 16:14:35 24° NNE
Cosmos 2219 Rocket 2.1 16:06:50 10° SSW 16:12:27 75° SE 16:15:17 31° NE
YAOGAN 6 2.4 16:09:55 10° SSE 16:13:30 87° ENE 16:17:09 10° NNW
Cosmos 489 Rocket 4.4 16:07:45 10° NW 16:14:10 81° NE 16:20:34 10° SE
USA 229 DEB 3.8 16:08:14 10° WNW 16:15:17 88° SSW 16:20:20 22° ESE
USA 229 3.8 16:08:21 10° WNW 16:15:23 88° SSW 16:20:25 23° ESE
Cosmos 2151 Rocket 4.5 16:12:06 10° N 16:15:03 31° NNE 16:15:03 31° NNE
GENESIS II 4.4 16:12:43 10° WNW 16:16:50 60° NNE 16:17:30 51° NE
Cosmos 405 Rocket 4.5 16:13:27 10° N 16:14:39 18° N 16:14:39 18° N
Cosmos 540 Rocket 4.3 16:13:09 10° NNW 16:17:43 30° NNE 16:17:57 30° NE
Cosmos 1943 Rocket 2.1 16:12:07 10° NW 16:17:50 77° NE 16:21:33 22° SE
NOSS 2-3 (D) 4.4 16:13:17 10° WNW 16:18:50 79° NNE 16:22:12 32° E
Exosat Rocket 3.6 16:14:29 10° SSW 16:19:24 55° ESE 16:20:57 39° ENE
NOSS 3-1 (A) 3.8 16:13:52 10° WNW 16:20:36 85° NNE 16:25:08 28° ESE
Cosmos 2026 Rocket 4.1 16:15:36 10° SSE 16:21:22 48° E 16:26:06 16° NNE
Cosmos 2315 Rocket 4.5 16:16:27 10° N 16:22:20 37° ENE 16:23:11 35° ENE
NOSS 3-4 (A) 3.5 16:16:47 10° SW 16:22:57 76° SSE 16:25:51 36° ENE
NOSS 3-4 (C) 3.5 16:16:54 10° SW 16:23:04 76° SSE 16:25:58 36° ENE
Meteor 1-27 Rocket 3.7 16:17:49 10° S 16:23:38 82° ESE 16:28:58 13° NNE
CZ-4 R/B 4.4 16:19:32 10° SSE 16:23:43 85° WSW 16:27:56 10° NNW
Transit 2A Rocket 4.4 16:20:29 10° SW 16:24:52 71° SE 16:25:37 56° E
Cosmos 1867 4.1 16:19:39 10° WNW 16:25:02 58° SW 16:29:57 12° SE
Cosmos 1570 Rocket 4.4 16:22:33 10° NNW 16:27:34 42° NE 16:28:00 41° NE
Cosmos 1417 Rocket 4.3 16:23:01 10° NNW 16:29:10 69° ENE 16:35:17 10° SSE
Cosmos 2297 4.5 16:24:31 10° NW 16:30:06 53° WSW 16:35:36 10° SSE
Cosmos 1980 3.8 16:25:22 10° SSW 16:30:51 54° ESE 16:32:12 44° ENE
Cosmos 921 Rocket 3.7 16:29:04 10° NW 16:33:13 54° WSW 16:37:25 10° S
NOSS 2-2 (C) 3.7 16:29:12 10° W 16:33:19 76° NNW 16:34:25 53° ENE
Cosmos 1689 Rocket 4.3 16:32:02 18° NNW 16:33:23 25° WNW 16:35:57 10° WSW
Cosmos 1441 Rocket 3.8 16:29:41 10° NNW 16:33:31 57° WSW 16:37:14 10° S
CSL-04 Rocket 3.5 16:28:38 10° SSE 16:33:57 89° WSW 16:39:19 10° NNW
Cosmos 2263 4.1 16:30:23 10° NW 16:36:12 72° NE 16:38:22 40° ESE
RESURS DK-1 2.2 16:32:45 10° SW 16:36:54 84° SE 16:37:13 75° ENE
Cosmos 1939 Rocket 3.4 16:38:14 45° N 16:38:14 45° N 16:41:05 10° NNW
SKYMED 2 4.3 16:41:07 37° SSE 16:41:07 37° SSE 16:44:02 10° S
NOSS 0 Rocket 3.9 16:34:08 10° SSW 16:40:17 65° SE 16:42:17 43° ENE
Cosmos 1782 Rocket 3.8 16:36:57 10° NNW 16:41:19 66° W 16:45:37 10° S
Sich 1 Rocket 3.6 16:38:13 10° NNW 16:42:41 79° WSW 16:47:04 10° S
Okean 2 Rocket 2.9 16:39:35 10° NNW 16:44:05 75° ENE 16:44:32 67° ESE
Ariane Rocket 2.8 16:49:10 54° SE 16:50:13 70° ENE 16:55:17 10° NNW
CSL-04 Debris 4.3 16:44:54 10° SSE 16:50:22 73° WSW 16:55:49 10° NNW
Cosmos 1627 Rocket 4.3 16:44:18 10° S 16:50:24 72° E 16:56:04 12° NNE
COSMOS 2428 2.7 16:44:51 10° SW 16:50:34 78° NW 16:52:35 42° NNE
NOSS 2-2 (E) 3.8 16:50:44 10° W 16:55:02 71° N 16:55:34 65° NE
NOSS 2-3 (C) 4.5 16:50:21 10° WNW 16:56:07 90° S 16:58:21 46° ESE
Cosmos 1862 Rocket 4.4 16:53:28 10° SW 16:57:45 50° WNW 17:00:02 25° N
Cosmos 2195 Rocket 4.4 16:52:03 10° S 16:58:18 83° ESE 17:04:41 10° NNE
ARGOS 3.8 17:00:19 38° NNE 17:00:19 38° NNE 17:04:06 10° NNW
Meteor 2-9 Rocket 4.2 16:53:31 10° NNW 16:59:27 87° WSW 17:05:18 10° SSE
Cosmos 1703 Rocket 3.6 16:56:11 10° SSW 17:00:18 75° S 17:00:18 75° S
ATLAS 2AS CENTAUR R/B 3.0 16:53:02 10° WSW 17:01:09 84° NNW 17:03:59 45° ENE
SeaSat 1 2.3 17:02:16 69° SE 17:02:52 88° NE 17:07:51 10° NW
Cosmos 1763 Rocket 3.5 16:58:52 10° NNW 17:03:29 62° NNE 17:03:29 62° NNE
Cosmos 1092 Rocket 4.0 17:00:43 10° SSW 17:07:01 80° WNW 17:13:18 10° NNE
Lacrosse 5 rocket 2.8 17:03:37 10° SW 17:06:10 28° SSW 17:06:10 28° SSW
Cosmos 2242 Rocket 4.2 17:05:09 10° SSW 17:09:41 58° WNW 17:11:14 38° N
Cosmos 2322 4.3 17:06:46 10° WSW 17:12:20 51° NNW 17:13:58 39° NNE
NOAA 11 4.5 17:07:36 10° S 17:13:03 67° WSW 17:18:34 10° NNW
Lacrosse 4 Rocket 2.5 17:09:18 10° NW 17:12:01 38° NNW 17:12:01 38° NNW
SL-4 R/B 4.0 17:11:06 10° SW 17:13:11 19° SSW 17:13:11 19° SSW
CZ-4 R/B 2.9 17:11:06 10° SSW 17:14:40 35° W 17:18:15 10° NNW
USA 215 3.4 17:17:58 52° SE 17:18:59 58° SSE 17:25:26 10° WSW
Cosmos 2360 Rocket 3.1 17:16:10 10° W 17:21:32 40° NNW 17:22:51 35° N
Meteor 2-8 Rocket 4.3 17:16:11 10° NNW 17:22:08 72° ENE 17:22:08 72° ENE
Cosmos 2369 Rocket 2.6 17:18:11 10° NW 17:23:43 61° WSW 17:25:28 41° S
Cosmos 2344 4.3 17:15:38 10° WNW 17:24:18 73° SW 17:30:41 30° SE
Cosmos 1743 4.4 17:20:49 10° NNW 17:24:18 33° W 17:27:48 10° SSW
COSMO-SKYMED 1 3.8 17:29:39 35° SW 17:29:39 35° SW 17:32:13 10° SSW
Cosmos 1980 Rocket 3.3 17:23:58 10° WNW 17:29:03 32° N 17:29:03 32° N
S3M 4.2 17:24:05 10° NNW 17:30:19 70° W 17:36:27 10° S
Cosmos 841 Rocket 4.1 17:25:38 10° NNW 17:29:23 45° NNW 17:29:23 45° NNW
SL-16 R/B 3.1 17:27:34 10° SSW 17:30:56 35° S 17:30:56 35° S
Meteor 1-12 Rocket 4.4 17:27:13 10° NNW 17:33:09 73° WSW 17:35:21 40° S
Resurs 01 Rocket 4.2 17:37:38 11° N 17:37:38 11° N 17:37:49 10° N
Cosmos 2251 Rocket 4.0 17:32:07 10° SW 17:37:20 56° NW 17:37:46 54° NNW
Cosmos 2333 Rocket 2.8 17:36:46 10° WSW 17:42:24 51° NNW 17:43:07 48° N
YAOGAN 1 4.4 17:39:02 10° SSW 17:42:50 29° W 17:46:39 10° NNW
Cosmos 2237 Rocket 2.3 17:38:02 10° SW 17:43:32 74° WNW 17:43:32 74° WNW
Cosmos 1656 Rocket 3.9 17:41:17 10° NW 17:46:02 65° WNW 17:46:02 65° WNW
Cosmos 2322 Rocket 3.4 17:43:45 10° WNW 17:48:49 32° N 17:48:55 32° N
H-2A R/B 3.4 17:53:52 30° NNW 17:53:52 30° NNW 17:56:22 10° NNW
Cosmos 2219 Rocket 2.9 17:51:24 10° WSW 17:56:50 45° NNW 17:57:01 45° NNW
COSMOS 2455 3.4 17:51:12 10° WNW 17:56:37 48° NNW 17:56:37 48° NNW
SL-16 R/B 3.5 17:52:13 10° WNW 17:57:01 32° N 17:57:01 32° N
Cosmos 1697 Rocket 3.9 17:52:28 10° NW 17:56:18 33° N 17:56:18 33° N
Cosmos 1943 Rocket 3.5 17:56:11 10° NW 18:01:15 35° WSW 18:03:08 28° SSW
Cosmos 2315 Rocket 4.2 18:02:07 10° NNW 18:08:04 70° WNW 18:08:04 70° WNW
NOSS 3-1 (A) 4.3 18:04:39 10° WNW 18:11:32 56° SW 18:12:35 52° SSW
NOSS 3-4 (A) 3.8 18:07:40 10° W 18:13:18 68° NW 18:13:18 68° NW
NOSS 3-4 (C) 3.8 18:07:47 10° W 18:13:24 68° NW 18:13:24 68° NW
Cosmos 1980 4.5 18:09:28 10° WSW 18:14:04 49° WNW 18:14:04 49° WNW
COSMOS 2428 4.0 18:30:17 10° W 18:34:36 35° NW 18:34:36 35° NW
SeaSat 1 4.4 18:42:03 25° W 18:42:03 25° W 18:45:11 10° NW
ATLAS 2AS CENTAUR R/B 3.3 18:44:39 10° W 18:51:24 64° NW 18:51:24 64° NW
USA 215 4.4 19:05:19 36° WSW 19:05:19 36° WSW 19:09:06 10° W
Cosmos 2369 Rocket 4.5 19:03:09 10° WNW 19:06:44 18° W 19:07:18 17° WSW
Cosmos 2360 Rocket 4.2 19:01:48 10° WNW 19:04:36 24° NW 19:04:36 24° NW
Cosmos 1980 Rocket 4.3 19:08:44 10° NW 19:10:49 22° NW 19:10:49 22° NW
Cosmos 2333 Rocket 4.3 19:22:38 10° WNW 19:25:07 22° NW 19:25:07 22° NW
Cosmos 2237 Rocket 4.4 19:23:21 10° W 19:25:23 21° WNW 19:25:23 21° WNW
